Location: Igloolik
(69.3800°N, 81.8000°W)
Time: 09:50:21
(UTC-06:00)

Amateur Radio Satellites - All Passes

Search period start: 20 December 2014 09:20
Search period end: 21 December 2014 09:20
Location: Igloolik, 69.3800°N, 81.8000°W

Satellite Date Start Highest point End Downlink Frequencies (MHz)
Time Altitude Azimuth
AO-7 20 Dec 09:20:12 09:28:04 48° 359° (N) 09:35:57 29.400- 29.500
UNISAT 6 20 Dec 09:20:20 09:24:40 46° 260° (W) 09:29:08 437.425
CUBEBUG 2 20 Dec 09:24:15 09:28:33 42° 98° (E) 09:32:58 437.445
DUCHIFAT 1 20 Dec 09:25:49 09:29:56 51° 257° (WSW) 09:34:05 145.980
AAUSAT CUBESAT 2 20 Dec 09:25:57 09:30:15 72° 109° (ESE) 09:34:30 437.432
BUGSAT 1 20 Dec 09:27:01 09:31:01 54° 255° (WSW) 09:35:01 437.445
Gurwin Techsat 1B 20 Dec 09:27:43 09:32:13 29° 24° (NNE) 09:36:43 435.225
HO-68 20 Dec 09:32:23 09:39:37 77° 115° (ESE) 09:46:47 435.675
JAS-2 20 Dec 09:32:54 09:38:28 30° 352° (N) 09:43:30 435.910
ITAMSAT 1 20 Dec 09:34:50 09:39:25 33° 31° (NNE) 09:43:59 435.822/435.867
ZACube-1 20 Dec 09:36:48 09:41:02 41° 98° (E) 09:45:20 437.345
VELOX 1 20 Dec 09:37:15 09:41:09 29° 92° (E) 09:45:01 145.980
CANX-2 20 Dec 09:38:04 09:42:26 78° 297° (WNW) 09:46:46 2200.000
CINEMA 3 20 Dec 09:38:09 09:42:40 62° 106° (ESE) 09:47:23 145.822/145.860
ESTCUBE 1 20 Dec 09:38:12 09:41:36 20° 83° (E) 09:44:58 437.505/2401.250
QB50P2 20 Dec 09:39:15 09:43:18 43° 260° (W) 09:47:23 145.880/145.840
DANDE 20 Dec 09:39:27 09:43:54 61° 103° (ESE) 09:49:59 436.750
HORYU 2 20 Dec 09:40:37 09:43:57 21° 18° (NNE) 09:47:19 437.375
CUTE-I 20 Dec 09:43:15 09:47:50 30° 334° (NNW) 09:52:24 437.470
GONETS M04 20 Dec 09:43:47 09:51:56 38° 343° (NNW) 10:00:02
YUBILEINY 20 Dec 09:44:08 09:52:54 89° 251° (WSW) 10:01:38 435.215
POLYITAN 1 20 Dec 09:48:05 09:52:03 38° 262° (W) 09:56:04 437.675
NANOSAT C BR1 20 Dec 09:50:44 09:54:40 37° 263° (W) 09:58:39 145.865
BRITE-PL 20 Dec 09:51:37 09:55:58 69° 299° (WNW) 10:00:38 437.365/2234.400
ANTELSAT 20 Dec 09:52:50 09:56:53 32° 267° (W) 10:01:03 437.575/2403.000
RS-15 20 Dec 09:54:14 10:00:57 19° 95° (E) 10:07:44 29.354- 29.394
TISAT 1 20 Dec 10:00:03 10:01:50 12° 75° (ENE) 10:03:36 437.305
COMPASS 1 20 Dec 10:01:06 10:05:24 72° 298° (WNW) 10:09:40 437.405
SPROUT 20 Dec 10:01:49 10:03:47 13° 74° (ENE) 10:05:44 437.525
UWE-3 20 Dec 10:03:25 10:07:52 61° 106° (ESE) 10:12:26 435.000/436.395/437.385
FUNcube-1 20 Dec 10:03:43 10:08:07 56° 104° (ESE) 10:12:35 145.935
QB50P1 20 Dec 10:05:22 10:09:10 31° 266° (W) 10:12:59 145.935-145.965
SEEDS 20 Dec 10:06:08 10:10:25 63° 301° (WNW) 10:14:41 437.485
O/OREOS (USA 219) 20 Dec 10:08:14 10:11:23 19° 251° (WSW) 10:14:33 437.305
CUTE 1.7 + AOD 2 20 Dec 10:09:03 10:13:19 58° 303° (WNW) 10:17:35 437.475
DELFI C3 20 Dec 10:20:01 10:24:12 90° 291° (WNW) 10:28:22 145.870
AISAT 20 Dec 10:20:13 10:24:32 48° 103° (ESE) 10:28:51 437.250
GOMX 1 20 Dec 10:20:18 10:24:41 60° 303° (WNW) 10:29:21 467.674
DX 1 20 Dec 10:20:38 10:25:01 80° 113° (ESE) 10:29:23 434.975-435.025
50 SAT 20 Dec 10:21:34 10:25:35 46° 101° (ESE) 10:29:37 437.505
CUBEBUG 1 20 Dec 10:27:38 10:31:36 33° 95° (E) 10:35:33 437.445
TIGRISAT 20 Dec 10:29:39 10:33:09 22° 276° (W) 10:36:43 435.000
CUSAT 1 20 Dec 10:32:28 10:37:15 76° 301° (WNW) 10:43:47 437.405
POPSAT HIP 1 20 Dec 10:34:48 10:38:10 23° 273° (W) 10:41:33 437.405
HUMSAT D 20 Dec 10:40:41 10:44:58 67° 108° (ESE) 10:49:18 437.325/437.525
MaSat-1 20 Dec 10:42:48 10:44:52 35° 148° (SSE) 10:46:57 437.345
Oscar 11 20 Dec 10:43:57 10:48:19 66° 301° (WNW) 10:52:40 145.826/435.025
DOVE 4 20 Dec 10:47:30 10:51:51 52° 306° (NW) 10:56:27 437.250
Cubesat XI-IV 20 Dec 10:49:31 10:53:46 25° 350° (N) 10:58:00 437.490
UKube-1 20 Dec 10:52:13 10:56:35 74° 300° (WNW) 11:00:55 .
Oscar 19 20 Dec 10:58:17 11:03:29 84° 62° (ENE) 11:08:43 437.125/150
UNISAT 6 20 Dec 10:59:50 11:02:38 16° 283° (WNW) 11:05:28 437.425
BEESAT 20 Dec 11:00:20 11:02:03 12° 70° (ENE) 11:03:45 436.000
CUBEBUG 2 20 Dec 11:01:05 11:05:33 67° 300° (WNW) 11:10:10 437.445
AAUSAT CUBESAT 2 20 Dec 11:01:48 11:05:49 40° 311° (NW) 11:09:48 437.432
DUCHIFAT 1 20 Dec 11:04:05 11:06:47 16° 279° (W) 11:09:30 145.980
BUGSAT 1 20 Dec 11:04:44 11:07:25 17° 278° (W) 11:10:06 437.445
Gurwin Techsat 1B 20 Dec 11:06:19 11:11:27 51° 48° (NE) 11:16:36 435.225
AO-7 20 Dec 11:11:51 11:19:56 56° 26° (NNE) 11:28:02 29.400- 29.500
ITAMSAT 1 20 Dec 11:13:15 11:18:23 65° 55° (NE) 11:23:33 435.822/435.867
ZACube-1 20 Dec 11:13:17 11:17:42 67° 300° (WNW) 11:22:12 437.345
VELOX 1 20 Dec 11:13:50 11:18:18 89° 115° (ESE) 11:22:45 145.980
CANX-2 20 Dec 11:14:11 11:18:01 31° 319° (NW) 11:21:49 2200.000
ESTCUBE 1 20 Dec 11:14:52 11:19:23 61° 106° (ESE) 11:23:51 437.505/2401.250
CINEMA 3 20 Dec 11:15:33 11:19:54 48° 308° (NW) 11:24:27 145.822/145.860
HORYU 2 20 Dec 11:15:40 11:19:45 35° 41° (NE) 11:23:51 437.375
JAS-2 20 Dec 11:16:25 11:22:17 32° 17° (NNE) 11:27:34 435.910
QB50P2 20 Dec 11:18:04 11:20:20 14° 283° (WNW) 11:22:37 145.880/145.840
HO-68 20 Dec 11:20:18 11:27:19 59° 320° (NW) 11:34:18 435.675
CUTE-I 20 Dec 11:22:38 11:26:48 24° 358° (N) 11:30:58 437.470
DANDE 20 Dec 11:22:58 11:27:36 54° 313° (NW) 11:33:55 436.750
POLYITAN 1 20 Dec 11:27:20 11:29:13 13° 285° (WNW) 11:31:07 437.675
NANOSAT C BR1 20 Dec 11:30:02 11:31:47 12° 286° (WNW) 11:33:33 145.865
BRITE-PL 20 Dec 11:30:23 11:34:07 29° 322° (NW) 11:38:02 437.365/2234.400
ANTELSAT 20 Dec 11:33:51 11:35:11 11° 291° (WNW) 11:36:31 437.575/2403.000
TISAT 1 20 Dec 11:34:54 11:38:52 37° 98° (E) 11:42:50 437.305
COMPASS 1 20 Dec 11:37:01 11:40:43 29° 321° (NW) 11:44:24 437.405
SPROUT 20 Dec 11:37:02 11:41:06 38° 98° (E) 11:45:08 437.525
UWE-3 20 Dec 11:40:08 11:44:26 48° 308° (NW) 11:48:51 435.000/436.395/437.385
FUNcube-1 20 Dec 11:40:14 11:44:32 51° 306° (NW) 11:48:56 145.935
YUBILEINY 20 Dec 11:41:06 11:49:08 44° 278° (W) 11:57:08 435.215
SEEDS 20 Dec 11:42:08 11:45:45 27° 323° (NW) 11:49:22 437.485
GONETS M04 20 Dec 11:43:15 11:51:22 38° 15° (NNE) 11:59:25
CUTE 1.7 + AOD 2 20 Dec 11:45:08 11:48:42 25° 326° (NW) 11:52:16 437.475
QB50P1 20 Dec 11:45:53 11:46:26 10° 289° (WNW) 11:46:59 145.935-145.965
DELFI C3 20 Dec 11:55:29 11:59:13 33° 316° (NW) 12:02:56 145.870
50 SAT 20 Dec 11:56:55 12:00:58 55° 303° (WNW) 12:05:03 437.505
AISAT 20 Dec 11:56:59 12:01:21 58° 305° (NW) 12:05:43 437.250
DX 1 20 Dec 11:57:03 12:01:06 38° 315° (NW) 12:05:08 434.975-435.025
GOMX 1 20 Dec 11:58:38 12:02:19 27° 325° (NW) 12:06:11 467.674
RS-15 20 Dec 12:00:16 12:10:00 40° 124° (SE) 12:19:56 29.354- 29.394
CUBEBUG 1 20 Dec 12:04:03 12:08:25 79° 297° (WNW) 12:12:46 437.445
AUBIESAT-1 20 Dec 12:06:49 12:07:03 10° 77° (ENE) 12:07:17 437.475
KKS-1 20 Dec 12:09:41 12:10:59 11° 71° (ENE) 12:12:18 437.445
SWISSCUBE 20 Dec 12:12:01 12:16:04 26° 89° (E) 12:20:05 437.505
ITUPSAT 1 20 Dec 12:12:21 12:16:21 25° 88° (E) 12:20:19 437.325
MaSat-1 20 Dec 12:15:51 12:18:04 87° 164° (SSE) 12:20:19 437.345
CUSAT 1 20 Dec 12:16:29 12:21:19 38° 329° (NNW) 12:27:36 437.405
HUMSAT D 20 Dec 12:16:39 12:20:43 43° 310° (NW) 12:24:49 437.325/437.525
Oscar 11 20 Dec 12:20:17 12:24:02 28° 323° (NW) 12:27:46 145.826/435.025
DOVE 4 20 Dec 12:25:26 12:29:01 25° 328° (NNW) 12:32:47 437.250
Cubesat XI-IV 20 Dec 12:28:21 12:32:41 26° 15° (NNE) 12:37:00 437.490
UKube-1 20 Dec 12:28:33 12:32:22 30° 323° (NW) 12:36:10 .
M-CUBED/EXP-1 PRIME 20 Dec 12:30:31 12:33:07 15° 85° (E) 12:35:38 437.505
BEESAT 20 Dec 12:37:04 12:41:25 33° 94° (E) 12:45:45 436.000
AAUSAT CUBESAT 2 20 Dec 12:37:34 12:40:43 20° 334° (NNW) 12:43:52 437.432
CUBEBUG 2 20 Dec 12:37:58 12:41:49 29° 322° (NW) 12:45:46 437.445
Oscar 19 20 Dec 12:38:34 12:43:21 37° 265° (W) 12:48:12 437.125/150
PCSat 20 Dec 12:41:04 12:43:08 12° 107° (ESE) 12:45:12 145.827
Gurwin Techsat 1B 20 Dec 12:46:06 12:51:25 69° 251° (WSW) 12:56:45 435.225
ZACube-1 20 Dec 12:49:50 12:53:38 29° 322° (NW) 12:57:30 437.345
CANX-2 20 Dec 12:50:04 12:53:01 18° 342° (NNW) 12:55:58 2200.000
VELOX 1 20 Dec 12:50:36 12:54:39 36° 317° (NW) 12:58:42 145.980
HORYU 2 20 Dec 12:51:36 12:56:07 86° 64° (ENE) 13:00:41 437.375
ESTCUBE 1 20 Dec 12:51:55 12:56:17 49° 309° (NW) 13:00:38 437.505/2401.250
CINEMA 3 20 Dec 12:52:53 12:56:27 24° 330° (NNW) 13:00:09 145.822/145.860
ITAMSAT 1 20 Dec 12:53:07 12:58:09 50° 258° (WSW) 13:03:13 435.822/435.867
JAS-2 20 Dec 12:59:43 13:06:26 48° 41° (NE) 13:12:24 435.910
CUTE-I 20 Dec 13:01:15 13:05:44 29° 23° (NNE) 13:10:14 437.470
AO-7 20 Dec 13:04:01 13:12:24 86° 52° (NE) 13:20:51 29.400- 29.500
HO-68 20 Dec 13:07:40 13:14:14 40° 346° (NNW) 13:20:46 435.675
DANDE 20 Dec 13:07:47 13:12:26 32° 341° (NNW) 13:18:25 436.750
BRITE-PL 20 Dec 13:08:49 13:11:41 18° 345° (NNW) 13:14:38 437.365/2234.400
TISAT 1 20 Dec 13:10:49 13:15:02 69° 300° (WNW) 13:19:14 437.305
COMPASS 1 20 Dec 13:12:39 13:15:29 17° 344° (NNW) 13:18:18 437.405
SPROUT 20 Dec 13:13:13 13:17:30 69° 300° (WNW) 13:21:48 437.525
BEESAT 3 20 Dec 13:14:33 13:16:24 13° 125° (SE) 13:18:16 437.485
FUNcube-1 20 Dec 13:16:43 13:20:17 24° 329° (NNW) 13:23:53 145.935
UWE-3 20 Dec 13:16:48 13:20:19 24° 330° (NNW) 13:23:55 435.000/436.395/437.385
SEEDS 20 Dec 13:17:47 13:20:34 17° 347° (NNW) 13:23:21 437.485
CUTE 1.7 + AOD 2 20 Dec 13:20:50 13:23:35 17° 349° (NNW) 13:26:20 437.475
DELFI C3 20 Dec 13:30:48 13:33:38 18° 339° (NNW) 13:36:28 145.870
50 SAT 20 Dec 13:32:19 13:35:39 24° 326° (NW) 13:39:00 437.505
DX 1 20 Dec 13:33:17 13:36:34 21° 338° (NNW) 13:39:50 434.975-435.025
AISAT 20 Dec 13:33:44 13:37:26 27° 328° (NNW) 13:41:08 437.250
GOMX 1 20 Dec 13:36:33 13:39:25 17° 349° (NNW) 13:42:23 467.674
YUBILEINY 20 Dec 13:37:53 13:43:48 21° 306° (NW) 13:49:43 435.215
AUBIESAT-1 20 Dec 13:39:27 13:43:34 30° 101° (E) 13:47:25 437.475
CUBEBUG 1 20 Dec 13:40:36 13:44:27 31° 320° (NW) 13:48:18 437.445
GONETS M04 20 Dec 13:41:37 13:50:18 55° 45° (NE) 13:58:52
STARS 20 Dec 13:41:51 13:45:37 26° 90° (E) 13:49:22 437.465
KKS-1 20 Dec 13:44:59 13:49:03 33° 94° (E) 13:53:06 437.445
MaSat-1 20 Dec 13:49:11 13:51:24 81° 194° (SSW) 13:53:41 437.345
SWISSCUBE 20 Dec 13:49:51 13:54:41 76° 112° (ESE) 13:59:28 437.505
ITUPSAT 1 20 Dec 13:50:12 13:55:02 73° 111° (ESE) 13:59:49 437.325
HUMSAT D 20 Dec 13:52:34 13:55:49 21° 333° (NNW) 13:59:04 437.325/437.525
BEESAT 2 20 Dec 13:52:51 13:55:40 18° 132° (SE) 13:58:31 435.950
Oscar 11 20 Dec 13:56:16 13:59:12 18° 346° (NNW) 14:02:08 145.826/435.025
CUSAT 1 20 Dec 14:01:10 14:06:07 30° 357° (N) 14:12:17 437.405
AIST 1 20 Dec 14:02:11 14:03:54 12° 70° (ENE) 14:05:38
DOVE 4 20 Dec 14:02:52 14:05:43 17° 352° (N) 14:08:40 437.250
UKube-1 20 Dec 14:04:33 14:07:36 19° 346° (NNW) 14:10:40 .
M-CUBED/EXP-1 PRIME 20 Dec 14:04:53 14:09:24 41° 108° (ESE) 14:13:35 437.505
Cubesat XI-IV 20 Dec 14:06:55 14:11:52 40° 39° (NE) 14:16:48 437.490
RS-15 20 Dec 14:10:04 14:20:44 63° 154° (SSE) 14:31:42 29.354- 29.394
AAUSAT CUBESAT 2 20 Dec 14:12:42 14:15:14 16° 357° (N) 14:17:46 437.432
CUBEBUG 2 20 Dec 14:14:30 14:17:32 18° 346° (NNW) 14:20:37 437.445
BEESAT 20 Dec 14:14:59 14:19:49 87° 296° (WNW) 14:24:37 436.000
PCSat 20 Dec 14:20:23 14:25:03 30° 130° (SE) 14:29:43 145.827
Oscar 19 20 Dec 14:21:38 14:24:15 14° 289° (WNW) 14:26:54 437.125/150
CANX-2 20 Dec 14:25:05 14:27:44 16° 5° (N) 14:30:23 2200.000
ZACube-1 20 Dec 14:26:03 14:29:01 18° 345° (NNW) 14:32:02 437.345
VELOX 1 20 Dec 14:27:07 14:30:24 21° 340° (NNW) 14:33:40 145.980
Gurwin Techsat 1B 20 Dec 14:27:54 14:32:19 26° 275° (W) 14:36:45 435.225
ESTCUBE 1 20 Dec 14:28:51 14:32:30 24° 332° (NNW) 14:36:07 437.505/2401.250
HORYU 2 20 Dec 14:29:15 14:33:18 32° 266° (W) 14:37:24 437.375
CINEMA 3 20 Dec 14:29:40 14:32:33 17° 354° (N) 14:35:31 145.822/145.860
ITAMSAT 1 20 Dec 14:35:19 14:38:54 19° 282° (WNW) 14:42:29 435.822/435.867
CUTE-I 20 Dec 14:39:57 14:45:04 50° 46° (NE) 14:50:12 437.470
JAS-2 20 Dec 14:44:02 14:51:17 88° 244° (WSW) 14:57:42 435.910
BRITE-PL 20 Dec 14:46:16 14:48:59 17° 9° (N) 14:51:46 437.365/2234.400
TISAT 1 20 Dec 14:46:49 14:50:26 28° 323° (NW) 14:54:03 437.305
COMPASS 1 20 Dec 14:47:23 14:49:59 16° 7° (N) 14:52:35 437.405
SPROUT 20 Dec 14:49:29 14:53:10 28° 322° (NW) 14:56:51 437.525
BEESAT 3 20 Dec 14:49:56 14:53:31 28° 147° (SSE) 14:57:08 437.485
SEEDS 20 Dec 14:52:28 14:55:10 16° 10° (N) 14:57:51 437.485
FUNcube-1 20 Dec 14:52:43 14:55:32 17° 352° (N) 14:58:24 145.935
DANDE 20 Dec 14:52:45 14:57:43 30° 9° (N) 15:03:56 436.750
MOZHAYETS 4 20 Dec 14:52:52 14:55:47 16° 77° (ENE) 14:58:42
UWE-3 20 Dec 14:52:55 14:55:45 17° 354° (N) 14:58:38 435.000/436.395/437.385
HO-68 20 Dec 14:54:18 15:00:50 40° 12° (NNE) 15:07:21 435.675
CUTE 1.7 + AOD 2 20 Dec 14:55:30 14:58:17 17° 12° (NNE) 15:01:03 437.475
AIST 2 20 Dec 14:56:06 14:59:33 24° 140° (SE) 15:03:01 435.215
AO-7 20 Dec 14:57:54 15:05:59 50° 258° (WSW) 15:14:08 29.400- 29.500
DELFI C3 20 Dec 15:05:21 15:07:43 15° 2° (N) 15:10:05 145.870
50 SAT 20 Dec 15:07:22 15:09:51 16° 349° (N) 15:12:20 437.505
DX 1 20 Dec 15:08:48 15:11:41 18° 2° (N) 15:14:35 434.975-435.025
AISAT 20 Dec 15:10:01 15:13:03 18° 351° (N) 15:16:04 437.250
GOMX 1 20 Dec 15:13:28 15:16:20 18° 13° (NNE) 15:19:17 467.674
AUBIESAT-1 20 Dec 15:14:23 15:19:09 83° 124° (SE) 15:23:33 437.475
CUBEBUG 1 20 Dec 15:16:53 15:19:55 19° 343° (NNW) 15:22:57 437.445
STARS 20 Dec 15:18:17 15:22:45 80° 112° (ESE) 15:27:13 437.465
KKS-1 20 Dec 15:21:40 15:26:10 83° 297° (WNW) 15:30:40 437.445
MaSat-1 20 Dec 15:22:31 15:24:33 30° 215° (SW) 15:26:39 437.345
SWISSCUBE 20 Dec 15:27:53 15:32:26 43° 314° (NW) 15:36:57 437.505
HUMSAT D 20 Dec 15:27:54 15:30:29 16° 356° (N) 15:33:05 437.325/437.525
ITUPSAT 1 20 Dec 15:28:16 15:32:51 45° 313° (NW) 15:37:24 437.325
BEESAT 2 20 Dec 15:29:14 15:33:04 35° 155° (SSE) 15:36:55 435.950
Oscar 11 20 Dec 15:31:19 15:34:09 17° 10° (N) 15:37:00 145.826/435.025
YUBILEINY 20 Dec 15:35:08 15:37:07 11° 335° (NNW) 15:39:07 435.215
AIST 1 20 Dec 15:36:30 15:40:31 37° 93° (E) 15:44:31
GONETS M04 20 Dec 15:39:03 15:47:55 83° 254° (WSW) 15:56:41
DOVE 4 20 Dec 15:39:17 15:42:16 19° 16° (NNE) 15:45:21 437.250
UKube-1 20 Dec 15:39:40 15:42:37 18° 9° (N) 15:45:34 .
M-CUBED/EXP-1 PRIME 20 Dec 15:39:58 15:44:45 76° 311° (NW) 15:49:12 437.505
CUSAT 1 20 Dec 15:45:27 15:50:59 35° 23° (NNE) 15:57:50 437.405
Cubesat XI-IV 20 Dec 15:46:19 15:51:40 86° 62° (ENE) 15:57:02 437.490
AAUSAT CUBESAT 2 20 Dec 15:46:46 15:49:42 18° 20° (NNE) 15:52:39 437.432
CUBEBUG 2 20 Dec 15:50:07 15:53:00 17° 9° (N) 15:55:57 437.445
BEESAT 20 Dec 15:52:59 15:57:23 37° 320° (NW) 16:01:46 436.000
CANX-2 20 Dec 15:59:12 16:02:32 22° 29° (NNE) 16:05:53 2200.000
ZACube-1 20 Dec 16:01:21 16:04:10 17° 9° (N) 16:07:02 437.345
PCSat 20 Dec 16:02:27 16:07:45 56° 154° (SSE) 16:13:05 145.827
VELOX 1 20 Dec 16:02:52 16:05:50 18° 4° (N) 16:08:47 145.980
ESTCUBE 1 20 Dec 16:05:13 16:08:16 18° 355° (N) 16:11:19 437.505/2401.250
CINEMA 3 20 Dec 16:05:27 16:08:33 19° 17° (NNE) 16:11:43 145.822/145.860
HORYU 2 20 Dec 16:10:15 16:11:26 11° 290° (WNW) 16:12:37 437.375
CUBESAT XI-V 20 Dec 16:16:03 16:17:52 12° 70° (ENE) 16:19:41 437.345
CUTE-I 20 Dec 16:19:47 16:25:06 71° 250° (WSW) 16:30:27 437.470
COMPASS 1 20 Dec 16:21:16 16:24:36 23° 30° (NNE) 16:27:56 437.405
RS-15 20 Dec 16:21:32 16:32:23 71° 185° (S) 16:43:37 29.354- 29.394
TISAT 1 20 Dec 16:22:31 16:25:19 17° 346° (NNW) 16:28:06 437.305
BRITE-PL 20 Dec 16:23:01 16:26:27 25° 34° (NNE) 16:30:00 437.365/2234.400
STRAND 1 20 Dec 16:23:01 16:25:18 13° 70° (ENE) 16:27:35 437.568
SPROUT 20 Dec 16:25:26 16:28:17 18° 346° (NNW) 16:31:08 437.525
SEEDS 20 Dec 16:26:27 16:29:55 24° 33° (NNE) 16:33:25 437.485
BEESAT 3 20 Dec 16:27:08 16:31:07 44° 170° (S) 16:35:08 437.485
FUNcube-1 20 Dec 16:27:43 16:30:40 18° 15° (NNE) 16:33:40 145.935
UWE-3 20 Dec 16:28:02 16:31:05 19° 17° (NNE) 16:34:11 435.000/436.395/437.385
CUTE 1.7 + AOD 2 20 Dec 16:29:35 16:33:10 26° 35° (NE) 16:36:46 437.475
MOZHAYETS 4 20 Dec 16:29:39 16:34:11 46° 100° (E) 16:38:40
JAS-2 20 Dec 16:30:19 16:37:03 40° 267° (W) 16:43:07 435.910
AIST 2 20 Dec 16:33:24 16:37:28 41° 163° (SSE) 16:41:33 435.215
DANDE 20 Dec 16:37:06 16:42:48 40° 34° (NE) 16:50:00 436.750
DELFI C3 20 Dec 16:38:52 16:41:50 19° 25° (NNE) 16:44:49 145.870
HO-68 20 Dec 16:40:44 16:47:41 56° 37° (NE) 16:54:39 435.675
50 SAT 20 Dec 16:41:22 16:43:52 16° 12° (NNE) 16:46:22 437.505
DX 1 20 Dec 16:43:28 16:46:51 23° 25° (NNE) 16:50:14 434.975-435.025
AISAT 20 Dec 16:45:22 16:48:30 19° 15° (NNE) 16:51:38 437.250
AUBIESAT-1 20 Dec 16:49:23 16:53:56 45° 327° (NNW) 16:58:12 437.475
GOMX 1 20 Dec 16:49:50 16:53:27 28° 37° (NE) 16:57:12 467.674
CUBEBUG 1 20 Dec 16:52:18 16:55:07 17° 7° (N) 16:57:55 437.445
AO-7 20 Dec 16:54:39 17:01:00 23° 285° (WNW) 17:07:24 29.400- 29.500
STARS 20 Dec 16:54:57 16:59:04 39° 315° (NW) 17:03:11 437.465
KKS-1 20 Dec 16:58:29 17:02:30 33° 320° (NW) 17:06:31 437.445
HUMSAT D 20 Dec 17:02:11 17:05:05 18° 19° (NNE) 17:08:02 437.325/437.525
Oscar 11 20 Dec 17:05:41 17:09:16 25° 33° (NNE) 17:12:52 145.826/435.025
SWISSCUBE 20 Dec 17:05:41 17:09:31 24° 338° (NNW) 17:13:20 437.505
ITUPSAT 1 20 Dec 17:06:07 17:09:59 25° 337° (NNW) 17:13:51 437.325
BEESAT 2 20 Dec 17:06:48 17:10:50 46° 178° (S) 17:14:53 435.950
AIST 1 20 Dec 17:13:40 17:18:02 69° 296° (WNW) 17:22:23
UKube-1 20 Dec 17:14:09 17:17:46 26° 32° (NNE) 17:21:24 .
M-CUBED/EXP-1 PRIME 20 Dec 17:14:58 17:19:25 39° 334° (NNW) 17:23:38 437.505
DOVE 4 20 Dec 17:15:20 17:19:05 31° 40° (NE) 17:23:00 437.250
PRISM 20 Dec 17:16:06 17:19:47 28° 93° (E) 17:23:25 437.425
AAUSAT CUBESAT 2 20 Dec 17:20:41 17:24:29 33° 43° (NE) 17:28:19 437.432
CUBEBUG 2 20 Dec 17:25:03 17:28:38 25° 33° (NNE) 17:32:18 437.445
Cubesat XI-IV 20 Dec 17:27:25 17:32:20 37° 265° (W) 17:37:17 437.490
CUSAT 1 20 Dec 17:29:05 17:35:21 56° 48° (NE) 17:43:10 437.405
BEESAT 20 Dec 17:30:39 17:34:20 23° 343° (NNW) 17:38:01 436.000
CANX-2 20 Dec 17:33:40 17:37:47 45° 51° (NE) 17:41:56 2200.000
ZACube-1 20 Dec 17:35:56 17:39:28 25° 32° (NNE) 17:43:04 437.345
GONETS M04 20 Dec 17:36:01 17:43:59 41° 281° (W) 17:51:54
VELOX 1 20 Dec 17:37:48 17:41:19 24° 27° (NNE) 17:44:51 145.980
ESTCUBE 1 20 Dec 17:40:37 17:43:58 21° 19° (NNE) 17:47:18 437.505/2401.250
CINEMA 3 20 Dec 17:40:58 17:44:49 32° 41° (NE) 17:48:49 145.822/145.860
PCSat 20 Dec 17:45:31 17:50:56 71° 179° (S) 17:56:22 145.827
CUBESAT XI-V 20 Dec 17:52:29 17:56:45 35° 94° (E) 18:00:58 437.345
COMPASS 1 20 Dec 17:55:33 17:59:40 47° 53° (NE) 18:03:47 437.405
TISAT 1 20 Dec 17:57:18 17:59:57 17° 9° (N) 18:02:37 437.305
BRITE-PL 20 Dec 18:00:22 18:04:27 59° 57° (ENE) 18:08:42 437.365/2234.400
SPROUT 20 Dec 18:00:27 18:03:10 17° 9° (N) 18:05:54 437.525
SEEDS 20 Dec 18:00:58 18:05:10 54° 56° (NE) 18:09:23 437.485
STRAND 1 20 Dec 18:01:23 18:06:05 35° 94° (E) 18:10:45 437.568
CUTE-I 20 Dec 18:01:36 18:06:05 27° 273° (W) 18:10:35 437.470
FUNcube-1 20 Dec 18:02:18 18:06:03 30° 39° (NE) 18:09:52 145.935
UWE-3 20 Dec 18:02:51 18:06:41 31° 40° (NE) 18:10:37 435.000/436.395/437.385
CUTE 1.7 + AOD 2 20 Dec 18:04:19 18:08:34 60° 58° (ENE) 18:12:51 437.475
BEESAT 3 20 Dec 18:04:54 18:08:53 43° 193° (SSW) 18:12:52 437.485
MOZHAYETS 4 20 Dec 18:07:01 18:11:39 62° 303° (WNW) 18:16:14
AIST 2 20 Dec 18:11:30 18:15:40 47° 186° (S) 18:19:49 435.215
DELFI C3 20 Dec 18:12:29 18:16:20 37° 48° (NE) 18:20:11 145.870
50 SAT 20 Dec 18:14:44 18:18:04 25° 35° (NE) 18:21:26 437.505
DX 1 20 Dec 18:18:15 18:22:23 43° 48° (NE) 18:26:31 434.975-435.025
JAS-2 20 Dec 18:19:33 18:23:57 17° 292° (WNW) 18:28:07 435.910
AISAT 20 Dec 18:20:18 18:24:12 31° 38° (NE) 18:28:06 437.250
DANDE 20 Dec 18:20:53 18:27:12 72° 57° (ENE) 18:35:16 436.750
AUBIESAT-1 20 Dec 18:24:03 18:28:14 31° 349° (N) 18:32:14 437.475
CUBEBUG 1 20 Dec 18:26:56 18:30:25 24° 30° (NNE) 18:33:53 437.445
GOMX 1 20 Dec 18:26:58 18:31:08 69° 61° (ENE) 18:35:31 467.674
HO-68 20 Dec 18:28:04 18:35:18 82° 242° (WSW) 18:42:32 435.675
STARS 20 Dec 18:31:25 18:34:45 21° 338° (NNW) 18:38:06 437.465
RS-15 20 Dec 18:33:16 18:43:51 56° 216° (SW) 18:54:50 29.354- 29.394
KKS-1 20 Dec 18:35:01 18:38:15 20° 343° (NNW) 18:41:30 437.445
HUMSAT D 20 Dec 18:36:14 18:39:59 32° 42° (NE) 18:43:48 437.325/437.525
Oscar 11 20 Dec 18:40:35 18:44:52 56° 56° (NE) 18:49:11 145.826/435.025
SWISSCUBE 20 Dec 18:42:46 18:46:14 20° 1° (N) 18:49:42 437.505
ITUPSAT 1 20 Dec 18:43:16 18:46:45 20° 1° (N) 18:50:13 437.325
BEESAT 2 20 Dec 18:44:44 18:48:39 38° 201° (SSW) 18:52:33 435.950
UKube-1 20 Dec 18:49:08 18:53:24 58° 55° (NE) 18:57:42 .
M-CUBED/EXP-1 PRIME 20 Dec 18:49:30 18:53:41 30° 356° (N) 18:57:42 437.505
PRISM 20 Dec 18:51:36 18:55:51 89° 289° (WNW) 19:00:02 437.425
DOVE 4 20 Dec 18:52:17 18:56:31 80° 64° (ENE) 19:00:57 437.250
AIST 1 20 Dec 18:52:40 18:56:26 27° 320° (NW) 19:00:10
AAUSAT CUBESAT 2 20 Dec 18:55:37 18:59:53 87° 67° (ENE) 19:04:11 437.432
CUBEBUG 2 20 Dec 19:00:32 19:04:45 56° 56° (NE) 19:09:08 437.445
BEESAT 20 Dec 19:07:31 19:11:01 21° 7° (N) 19:14:31 436.000
CANX-2 20 Dec 19:09:25 19:13:42 63° 254° (WSW) 19:18:02 2200.000
ZACube-1 20 Dec 19:11:03 19:15:15 55° 55° (NE) 19:19:34 437.345
Cubesat XI-IV 20 Dec 19:11:22 19:14:03 14° 290° (WNW) 19:16:45 437.490
CUSAT 1 20 Dec 19:12:19 19:18:54 78° 250° (WSW) 19:27:02 437.405
VELOX 1 20 Dec 19:12:59 19:17:14 47° 50° (NE) 19:21:30 145.980
ESTCUBE 1 20 Dec 19:15:50 19:19:58 35° 42° (NE) 19:24:06 437.505/2401.250
CINEMA 3 20 Dec 19:17:25 19:21:42 83° 64° (ENE) 19:26:12 145.822/145.860
YUBILEINY 20 Dec 19:18:38 19:22:22 14° 36° (NE) 19:26:05 435.215
PCSat 20 Dec 19:28:48 19:34:09 58° 203° (SSW) 19:39:29 145.827
CUBESAT XI-V 20 Dec 19:30:00 19:34:39 80° 297° (WNW) 19:39:17 437.345
COMPASS 1 20 Dec 19:31:12 19:35:25 58° 255° (WSW) 19:39:40 437.405
TISAT 1 20 Dec 19:31:21 19:34:45 24° 32° (NNE) 19:38:10 437.305
GONETS M04 20 Dec 19:32:48 19:38:31 20° 309° (NW) 19:44:12
SPROUT 20 Dec 19:34:44 19:38:12 24° 32° (NNE) 19:41:41 437.525
SEEDS 20 Dec 19:36:57 19:41:08 50° 258° (WSW) 19:45:21 437.485
FUNcube-1 20 Dec 19:37:43 19:41:59 73° 62° (ENE) 19:46:24 145.935
UWE-3 20 Dec 19:38:35 19:42:52 80° 64° (ENE) 19:47:20 435.000/436.395/437.385
BRITE-PL 20 Dec 19:39:17 19:43:16 43° 261° (W) 19:47:22 437.365/2234.400
CUTE 1.7 + AOD 2 20 Dec 19:40:34 19:44:43 44° 260° (W) 19:48:54 437.475
STRAND 1 20 Dec 19:40:42 19:45:51 87° 297° (WNW) 19:50:58 437.568
BEESAT 3 20 Dec 19:42:56 19:46:27 26° 216° (SW) 19:49:58 437.485
MOZHAYETS 4 20 Dec 19:44:22 19:48:21 28° 325° (NW) 19:52:18
DELFI C3 20 Dec 19:47:18 19:51:27 76° 250° (WSW) 19:55:38 145.870
50 SAT 20 Dec 19:48:46 19:52:46 58° 58° (ENE) 19:56:50 437.505
AIST 2 20 Dec 19:49:53 19:53:46 33° 209° (SSW) 19:57:38 435.215
DX 1 20 Dec 19:54:14 19:58:35 68° 250° (WSW) 20:02:56 434.975-435.025
AISAT 20 Dec 19:56:01 20:00:27 74° 61° (ENE) 20:04:53 437.250
AUBIESAT-1 20 Dec 19:58:09 20:02:23 31° 12° (NNE) 20:06:28 437.475
CUBEBUG 1 20 Dec 20:01:56 20:06:10 50° 53° (NE) 20:10:23 437.445
DANDE 20 Dec 20:04:27 20:10:46 57° 259° (W) 20:18:40 436.750
GOMX 1 20 Dec 20:05:46 20:09:40 37° 264° (W) 20:13:44 467.674
STARS 20 Dec 20:07:10 20:10:06 18° 1° (N) 20:13:02 437.465
KKS-1 20 Dec 20:10:43 20:13:44 18° 6° (N) 20:16:45 437.445
HUMSAT D 20 Dec 20:11:16 20:15:29 84° 65° (ENE) 20:19:47 437.325/437.525
Oscar 11 20 Dec 20:16:57 20:21:12 49° 258° (WSW) 20:25:29 145.826/435.025
HO-68 20 Dec 20:17:21 20:23:59 38° 267° (W) 20:30:37 435.675
SWISSCUBE 20 Dec 20:19:04 20:22:59 26° 25° (NNE) 20:26:54 437.505
ITUPSAT 1 20 Dec 20:19:37 20:23:31 25° 24° (NNE) 20:27:25 437.325
BEESAT 2 20 Dec 20:23:00 20:26:07 20° 224° (SW) 20:29:15 435.950
M-CUBED/EXP-1 PRIME 20 Dec 20:23:31 20:27:55 34° 19° (NNE) 20:32:09 437.505
UKube-1 20 Dec 20:25:33 20:29:45 47° 257° (WSW) 20:33:59 .
PRISM 20 Dec 20:27:19 20:31:07 34° 318° (NW) 20:34:54 437.425
TIGRISAT 20 Dec 20:28:51 20:31:28 15° 75° (ENE) 20:34:06 435.000
POPSAT HIP 1 20 Dec 20:30:22 20:30:57 10° 71° (ENE) 20:31:32 437.405
DOVE 4 20 Dec 20:30:59 20:34:48 32° 267° (W) 20:38:46 437.250
AAUSAT CUBESAT 2 20 Dec 20:32:19 20:36:04 29° 268° (W) 20:39:50 437.432
AIST 1 20 Dec 20:32:41 20:35:31 17° 345° (NNW) 20:38:19
CUBEBUG 2 20 Dec 20:37:28 20:41:38 48° 259° (W) 20:45:58 437.445
BEESAT 20 Dec 20:43:44 20:47:48 28° 30° (NNE) 20:51:53 436.000
RS-15 20 Dec 20:44:55 20:54:08 33° 245° (WSW) 21:03:41 29.354- 29.394
CANX-2 20 Dec 20:47:16 20:50:29 20° 277° (W) 20:53:44 2200.000
ZACube-1 20 Dec 20:47:37 20:51:47 49° 258° (WSW) 20:56:05 437.345
VELOX 1 20 Dec 20:49:27 20:53:51 62° 253° (WSW) 20:58:15 145.980
ESTCUBE 1 20 Dec 20:52:00 20:56:34 88° 64° (ENE) 21:01:09 437.505/2401.250
CUSAT 1 20 Dec 20:55:30 21:01:32 37° 272° (W) 21:08:41 437.405
CINEMA 3 20 Dec 20:55:37 20:59:27 31° 268° (W) 21:03:26 145.822/145.860
BUGSAT 1 20 Dec 20:56:12 20:57:43 12° 75° (ENE) 20:59:14 437.445
DUCHIFAT 1 20 Dec 20:57:06 20:59:26 14° 78° (ENE) 21:01:47 145.980
UNISAT 6 20 Dec 20:57:44 21:01:14 20° 82° (E) 21:04:44 437.425
TISAT 1 20 Dec 21:05:54 21:10:01 54° 55° (NE) 21:14:09 437.305
CUBESAT XI-V 20 Dec 21:07:36 21:11:45 33° 320° (NW) 21:15:53 437.345
COMPASS 1 20 Dec 21:09:00 21:12:02 19° 278° (W) 21:15:05 437.405
YUBILEINY 20 Dec 21:09:16 21:16:07 27° 64° (ENE) 21:22:58 435.215
SPROUT 20 Dec 21:09:32 21:13:43 54° 55° (NE) 21:17:55 437.525
QB50P2 20 Dec 21:10:30 21:13:21 17° 81° (E) 21:16:11 145.880/145.840
PCSat 20 Dec 21:12:08 21:16:55 32° 227° (SW) 21:21:41 145.827
FUNcube-1 20 Dec 21:14:46 21:18:44 36° 265° (W) 21:22:48 145.935
SEEDS 20 Dec 21:15:14 21:17:58 16° 281° (W) 21:20:44 437.485
UWE-3 20 Dec 21:16:00 21:19:53 33° 267° (W) 21:23:55 435.000/436.395/437.385
CUTE 1.7 + AOD 2 20 Dec 21:19:17 21:21:45 15° 283° (WNW) 21:24:14 437.475
POLYITAN 1 20 Dec 21:19:17 21:22:22 19° 83° (E) 21:25:27 437.675
STRAND 1 20 Dec 21:20:02 21:24:45 39° 321° (NW) 21:29:28 437.568
BRITE-PL 20 Dec 21:20:54 21:23:02 14° 285° (WNW) 21:25:12 437.365/2234.400
MOZHAYETS 4 20 Dec 21:21:16 21:24:31 19° 349° (N) 21:27:45
NANOSAT C BR1 20 Dec 21:21:25 21:24:30 19° 84° (E) 21:27:35 145.865
BEESAT 3 20 Dec 21:22:10 21:23:30 11° 238° (WSW) 21:24:49 437.485
DELFI C3 20 Dec 21:24:02 21:27:23 23° 272° (W) 21:30:46 145.870
50 SAT 20 Dec 21:24:18 21:28:12 43° 260° (W) 21:32:09 437.505
AIST 2 20 Dec 21:28:48 21:31:26 16° 231° (SW) 21:34:04 435.215
ANTELSAT 20 Dec 21:29:34 21:33:38 29° 90° (E) 21:37:44 437.575/2403.000
GONETS M04 20 Dec 21:30:07 21:31:42 11° 338° (NNW) 21:33:17
AUBIESAT-1 20 Dec 21:32:03 21:36:43 46° 34° (NE) 21:41:14 437.475
DX 1 20 Dec 21:32:11 21:35:36 22° 273° (W) 21:39:01 434.975-435.025
AISAT 20 Dec 21:33:21 21:37:28 36° 263° (W) 21:41:36 437.250
QB50P1 20 Dec 21:35:45 21:39:09 23° 87° (E) 21:42:33 145.935-145.965
CUBEBUG 1 20 Dec 21:38:19 21:42:37 56° 255° (WSW) 21:46:55 437.445
SO-50 20 Dec 21:40:20 21:43:56 22° 135° (SE) 21:47:37 436.795
STARS 20 Dec 21:42:02 21:45:28 22° 25° (NNE) 21:48:54 437.465
KKS-1 20 Dec 21:45:41 21:49:19 25° 30° (NNE) 21:52:57 437.445
GOMX 1 20 Dec 21:47:32 21:49:11 12° 288° (WNW) 21:50:51 467.674
HUMSAT D 20 Dec 21:48:03 21:51:47 30° 268° (W) 21:55:35 437.325/437.525
DANDE 20 Dec 21:48:06 21:53:24 26° 281° (W) 21:59:37 436.750
SWISSCUBE 20 Dec 21:55:32 22:00:08 48° 48° (NE) 22:04:45 437.505
Oscar 11 20 Dec 21:55:39 21:58:25 16° 281° (W) 22:01:12 145.826/435.025
ITUPSAT 1 20 Dec 21:56:05 22:00:41 46° 48° (NE) 22:05:17 437.325
M-CUBED/EXP-1 PRIME 20 Dec 21:57:35 22:02:25 57° 41° (NE) 22:07:06 437.505
PRISM 20 Dec 22:02:49 22:05:49 19° 341° (NNW) 22:08:47 437.425
UKube-1 20 Dec 22:04:19 22:06:59 16° 280° (W) 22:09:39 .
POPSAT HIP 1 20 Dec 22:04:23 22:08:13 31° 94° (E) 22:12:03 437.405
TIGRISAT 20 Dec 22:05:01 22:09:26 42° 98° (E) 22:13:55 435.000
HO-68 20 Dec 22:09:43 22:14:00 16° 294° (WNW) 22:18:16 435.675
AIST 1 20 Dec 22:12:10 22:14:54 16° 11° (NNE) 22:17:37
DOVE 4 20 Dec 22:13:17 22:14:05 10° 291° (WNW) 22:14:53 437.250
CUBEBUG 2 20 Dec 22:16:46 22:19:27 16° 283° (WNW) 22:22:12 437.445
BEESAT 20 Dec 22:20:22 22:25:05 58° 53° (NE) 22:29:48 436.000
ZACube-1 20 Dec 22:26:29 22:29:13 16° 282° (WNW) 22:32:00 437.345
VELOX 1 20 Dec 22:27:59 22:31:18 20° 275° (W) 22:34:37 145.980
ESTCUBE 1 20 Dec 22:29:56 22:33:59 31° 267° (W) 22:38:03 437.505/2401.250
BUGSAT 1 20 Dec 22:30:36 22:34:24 37° 98° (E) 22:38:11 437.445
DUCHIFAT 1 20 Dec 22:32:19 22:36:24 44° 100° (E) 22:40:29 145.980
UNISAT 6 20 Dec 22:34:19 22:38:57 59° 105° (ESE) 22:43:37 437.425
CINEMA 3 20 Dec 22:37:33 22:38:11 10° 292° (WNW) 22:38:49 145.822/145.860
CUSAT 1 20 Dec 22:39:07 22:43:08 17° 295° (WNW) 22:47:35 437.405
TISAT 1 20 Dec 22:41:53 22:45:59 49° 257° (WSW) 22:50:07 437.305
CUBESAT XI-V 20 Dec 22:44:54 22:48:15 20° 343° (NNW) 22:51:36 437.345
SPROUT 20 Dec 22:45:45 22:49:56 50° 257° (WSW) 22:54:09 437.525
QB50P2 20 Dec 22:46:01 22:50:13 53° 104° (ESE) 22:54:25 145.880/145.840
FUNcube-1 20 Dec 22:54:43 22:56:25 12° 288° (WNW) 22:58:08 145.935
POLYITAN 1 20 Dec 22:54:56 22:59:11 59° 106° (ESE) 23:03:26 437.675
Oscar 19 20 Dec 22:55:53 22:58:10 13° 69° (ENE) 23:00:27 437.125/150
PCSat 20 Dec 22:56:21 22:58:56 14° 251° (WSW) 23:01:30 145.827
UWE-3 20 Dec 22:56:40 22:57:52 11° 290° (WNW) 22:59:04 435.000/436.395/437.385
NANOSAT C BR1 20 Dec 22:57:00 23:01:14 60° 106° (ESE) 23:05:28 145.865
MOZHAYETS 4 20 Dec 22:57:13 23:00:30 19° 13° (NNE) 23:03:47
RS-15 20 Dec 22:57:53 23:02:35 14° 275° (W) 23:07:22 29.354- 29.394
STRAND 1 20 Dec 22:58:58 23:03:03 25° 344° (NNW) 23:07:07 437.568
50 SAT 20 Dec 23:02:23 23:04:31 14° 283° (WNW) 23:06:39 437.505
YUBILEINY 20 Dec 23:02:54 23:11:21 57° 92° (E) 23:19:47 435.215
ANTELSAT 20 Dec 23:06:22 23:11:04 83° 112° (ESE) 23:15:49 437.575/2403.000
AUBIESAT-1 20 Dec 23:06:35 23:11:31 84° 236° (SW) 23:16:19 437.475
QB50P1 20 Dec 23:11:29 23:15:46 72° 110° (ESE) 23:20:02 145.935-145.965
AISAT 20 Dec 23:13:34 23:15:24 12° 286° (WNW) 23:17:15 437.250
CUBEBUG 1 20 Dec 23:16:53 23:19:55 18° 278° (W) 23:22:59 437.445
STARS 20 Dec 23:17:02 23:21:12 43° 48° (NE) 23:25:24 437.465
SO-50 20 Dec 23:19:13 23:23:37 40° 158° (SSE) 23:28:08 436.795
KKS-1 20 Dec 23:21:01 23:25:20 52° 52° (NE) 23:29:42 437.445
M-CUBED/EXP-1 PRIME 20 Dec 23:32:33 23:37:27 64° 242° (WSW) 23:42:16 437.505
DANDE 20 Dec 23:33:10 23:34:58 11° 304° (NW) 23:36:50 436.750
SWISSCUBE 20 Dec 23:33:11 23:37:59 67° 251° (WSW) 23:42:48 437.505
ITUPSAT 1 20 Dec 23:33:43 23:38:32 70° 250° (WSW) 23:43:21 437.325
PRISM 20 Dec 23:37:33 23:40:13 17° 4° (N) 23:42:52 437.425
POPSAT HIP 1 20 Dec 23:40:18 23:44:35 82° 296° (WNW) 23:48:52 437.405
TIGRISAT 20 Dec 23:41:53 23:46:30 70° 300° (WNW) 23:51:12 435.000
AIST 1 20 Dec 23:50:25 23:54:03 25° 37° (NE) 23:57:39
BEESAT 20 Dec 23:58:22 00:03:05 53° 256° (WSW) 00:07:49 436.000
BUGSAT 1 21 Dec 00:06:10 00:10:12 67° 300° (WNW) 00:14:14 437.445
DUCHIFAT 1 21 Dec 00:08:17 00:12:29 60° 303° (WNW) 00:16:41 145.980
UNISAT 6 21 Dec 00:11:17 00:15:48 52° 307° (NW) 00:20:23 437.425
ESTCUBE 1 21 Dec 00:11:26 00:12:21 11° 291° (WNW) 00:13:16 437.505/2401.250
TISAT 1 21 Dec 00:20:12 00:22:49 16° 280° (W) 00:25:27 437.305
CUBESAT XI-V 21 Dec 00:21:19 00:24:28 18° 7° (N) 00:27:36 437.345
QB50P2 21 Dec 00:22:05 00:26:14 52° 306° (NW) 00:30:24 145.880/145.840
SPROUT 21 Dec 00:24:17 00:27:02 16° 280° (W) 00:29:48 437.525
POLYITAN 1 21 Dec 00:31:03 00:35:10 47° 308° (NW) 00:39:17 437.675
MOZHAYETS 4 21 Dec 00:32:40 00:36:42 29° 36° (NE) 00:40:44
NANOSAT C BR1 21 Dec 00:33:03 00:37:08 46° 309° (NW) 00:41:13 145.865
O/OREOS (USA 219) 21 Dec 00:33:55 00:37:40 27° 117° (ESE) 00:41:27 437.305
Oscar 19 21 Dec 00:34:24 00:39:09 34° 93° (E) 00:43:54 437.125/150
STRAND 1 21 Dec 00:37:07 00:41:04 23° 8° (N) 00:45:01 437.568
AUBIESAT-1 21 Dec 00:42:35 00:46:59 32° 257° (WSW) 00:51:19 437.475
ANTELSAT 21 Dec 00:43:21 00:47:40 39° 315° (NW) 00:52:03 437.575/2403.000
Gurwin Techsat 1B 21 Dec 00:47:26 00:51:23 21° 80° (E) 00:55:18 435.225
QB50P1 21 Dec 00:47:34 00:51:34 40° 312° (NW) 00:55:33 145.935-145.965
AO-7 21 Dec 00:49:01 00:53:00 14° 57° (ENE) 00:56:57 29.400- 29.500
ITAMSAT 1 21 Dec 00:50:48 00:55:04 25° 86° (E) 00:59:19 435.822/435.867
STARS 21 Dec 00:53:13 00:57:37 70° 250° (WSW) 01:02:04 437.465
KKS-1 21 Dec 00:57:42 01:02:05 55° 255° (WSW) 01:06:30 437.445
SO-50 21 Dec 00:59:06 01:03:41 49° 182° (S) 01:08:23 436.795
YUBILEINY 21 Dec 00:59:23 01:08:08 74° 299° (WNW) 01:16:53 435.215
M-CUBED/EXP-1 PRIME 21 Dec 01:09:15 01:13:15 24° 264° (W) 01:17:11 437.505
PRISM 21 Dec 01:11:24 01:14:40 22° 27° (NNE) 01:17:56 437.425
GONETS M04 21 Dec 01:12:41 01:17:00 15° 39° (NE) 01:21:18
SWISSCUBE 21 Dec 01:12:51 01:16:42 24° 274° (W) 01:20:34 437.505
ITUPSAT 1 21 Dec 01:13:19 01:17:15 24° 273° (W) 01:21:11 437.325
POPSAT HIP 1 21 Dec 01:16:24 01:20:11 32° 319° (NW) 01:23:58 437.405
TIGRISAT 21 Dec 01:18:47 01:22:49 31° 323° (NW) 01:26:54 435.000
AIST 1 21 Dec 01:28:13 01:32:32 61° 61° (ENE) 01:36:48
BEESAT 21 Dec 01:38:37 01:42:00 19° 279° (W) 01:45:24 436.000
BUGSAT 1 21 Dec 01:41:52 01:45:17 26° 323° (NW) 01:48:41 437.445
DUCHIFAT 1 21 Dec 01:44:19 01:47:51 26° 325° (NW) 01:51:23 145.980
UNISAT 6 21 Dec 01:48:09 01:51:57 26° 330° (NNW) 01:55:48 437.425
CUBESAT XI-V 21 Dec 01:56:59 02:00:48 25° 30° (NNE) 02:04:35 437.345
QB50P2 21 Dec 01:58:09 02:01:34 24° 329° (NNW) 02:04:59 145.880/145.840
HORYU 2 21 Dec 02:05:31 02:09:19 25° 89° (E) 02:13:06 437.375
POLYITAN 1 21 Dec 02:07:07 02:10:28 23° 331° (NNW) 02:13:49 437.675
MOZHAYETS 4 21 Dec 02:08:48 02:13:27 66° 59° (ENE) 02:18:06
NANOSAT C BR1 21 Dec 02:09:03 02:12:21 22° 331° (NNW) 02:15:39 145.865
O/OREOS (USA 219) 21 Dec 02:12:06 02:16:33 68° 140° (SE) 02:21:02 437.305
Oscar 19 21 Dec 02:13:51 02:19:06 90° 301° (WNW) 02:24:21 437.125/150
STRAND 1 21 Dec 02:14:44 02:19:15 33° 32° (NNE) 02:23:46 437.568
ANTELSAT 21 Dec 02:20:06 02:23:38 22° 338° (NNW) 02:27:13 437.575/2403.000
AUBIESAT-1 21 Dec 02:21:35 02:23:20 12° 280° (W) 02:25:04 437.475
QB50P1 21 Dec 02:23:32 02:26:43 21° 335° (NNW) 02:29:53 145.935-145.965
Gurwin Techsat 1B 21 Dec 02:27:17 02:32:32 54° 103° (ESE) 02:37:45 435.225
ITAMSAT 1 21 Dec 02:30:18 02:35:29 68° 109° (ESE) 02:40:40 435.822/435.867
STARS 21 Dec 02:31:22 02:34:52 23° 273° (W) 02:38:24 437.465
KKS-1 21 Dec 02:36:34 02:39:42 18° 278° (W) 02:42:50 437.445
SO-50 21 Dec 02:39:18 02:43:44 38° 205° (SSW) 02:48:14 436.795
AO-7 21 Dec 02:41:44 02:49:03 32° 85° (E) 02:56:20 29.400- 29.500
PRISM 21 Dec 02:45:30 02:49:32 45° 50° (NE) 02:53:34 437.425
POPSAT HIP 1 21 Dec 02:52:16 02:55:11 18° 342° (NNW) 02:58:08 437.405
TIGRISAT 21 Dec 02:55:19 02:58:35 20° 346° (NNW) 03:01:53 435.000
YUBILEINY 21 Dec 02:58:08 03:06:23 44° 329° (NNW) 03:14:39 435.215
GONETS M04 21 Dec 03:03:42 03:10:55 30° 67° (ENE) 03:18:07
AIST 1 21 Dec 03:06:04 03:10:09 41° 264° (W) 03:14:11
BUGSAT 1 21 Dec 03:17:17 03:19:49 16° 346° (NNW) 03:22:21 437.445
DUCHIFAT 1 21 Dec 03:19:59 03:22:42 17° 348° (NNW) 03:25:26 145.980
JAS-2 21 Dec 03:23:10 03:28:13 26° 80° (E) 03:32:50 435.910
UNISAT 6 21 Dec 03:24:30 03:27:39 19° 353° (N) 03:30:50 437.425
CUBESAT XI-V 21 Dec 03:33:04 03:37:36 52° 53° (NE) 03:42:07 437.345
QB50P2 21 Dec 03:33:44 03:36:25 17° 352° (N) 03:39:07 145.880/145.840
HORYU 2 21 Dec 03:42:07 03:46:41 76° 112° (ESE) 03:51:14 437.375
POLYITAN 1 21 Dec 03:42:39 03:45:19 16° 354° (N) 03:47:59 437.675
NANOSAT C BR1 21 Dec 03:44:31 03:47:08 16° 354° (N) 03:49:46 145.865
MOZHAYETS 4 21 Dec 03:46:30 03:50:58 43° 262° (W) 03:55:27
Cubesat XI-IV 21 Dec 03:49:23 03:52:05 14° 70° (ENE) 03:54:47 437.490
O/OREOS (USA 219) 21 Dec 03:51:36 03:56:05 70° 344° (NNW) 04:00:36 437.305
STRAND 1 21 Dec 03:52:52 03:57:56 67° 56° (NE) 04:03:02 437.568
Oscar 19 21 Dec 03:53:21 03:58:12 40° 319° (NW) 04:03:02 437.125/150
ANTELSAT 21 Dec 03:56:09 03:59:16 18° 1° (N) 04:02:25 437.575/2403.000
QB50P1 21 Dec 03:58:52 04:01:28 16° 358° (N) 04:04:05 145.935-145.965
Gurwin Techsat 1B 21 Dec 04:07:27 04:12:43 62° 307° (NW) 04:17:57 435.225
ITAMSAT 1 21 Dec 04:09:58 04:14:59 51° 313° (NW) 04:19:59 435.822/435.867
SO-50 21 Dec 04:19:51 04:23:22 20° 228° (SW) 04:26:54 436.795
PRISM 21 Dec 04:20:50 04:25:03 63° 252° (WSW) 04:29:16 437.425
CUTE-I 21 Dec 04:22:09 04:25:55 19° 78° (ENE) 04:29:41 437.470
POPSAT HIP 1 21 Dec 04:27:18 04:29:55 16° 5° (N) 04:32:33 437.405
TIGRISAT 21 Dec 04:30:57 04:34:07 19° 10° (N) 04:37:19 435.000
AO-7 21 Dec 04:35:05 04:43:28 66° 112° (ESE) 04:51:49 29.400- 29.500
AIST 1 21 Dec 04:44:43 04:46:50 14° 288° (WNW) 04:48:57
BUGSAT 1 21 Dec 04:51:45 04:54:09 16° 9° (N) 04:56:33 437.445
DUCHIFAT 1 21 Dec 04:54:39 04:57:23 17° 12° (NNE) 05:00:06 145.980
GONETS M04 21 Dec 04:57:40 05:06:19 62° 95° (E) 05:14:58
YUBILEINY 21 Dec 04:57:46 05:05:39 36° 360° (N) 05:13:31 435.215
UNISAT 6 21 Dec 04:59:53 05:03:13 20° 17° (NNE) 05:06:37 437.425
QB50P2 21 Dec 05:08:18 05:11:09 18° 15° (NNE) 05:14:00 145.880/145.840
JAS-2 21 Dec 05:08:22 05:14:38 65° 106° (ESE) 05:20:09 435.910
CUBESAT XI-V 21 Dec 05:10:31 05:15:08 57° 256° (WSW) 05:19:44 437.345
POLYITAN 1 21 Dec 05:17:10 05:20:05 18° 17° (NNE) 05:23:01 437.675
NANOSAT C BR1 21 Dec 05:18:56 05:21:50 18° 18° (NNE) 05:24:45 145.865
HORYU 2 21 Dec 05:18:58 05:23:14 41° 314° (NW) 05:27:29 437.375
MOZHAYETS 4 21 Dec 05:26:40 05:29:25 15° 285° (WNW) 05:32:09
Cubesat XI-IV 21 Dec 05:28:51 05:33:48 37° 95° (E) 05:38:43 437.490
ANTELSAT 21 Dec 05:31:20 05:34:54 23° 25° (NNE) 05:38:32 437.575/2403.000
O/OREOS (USA 219) 21 Dec 05:31:25 05:35:54 65° 9° (N) 05:40:24 437.305
Oscar 19 21 Dec 05:32:27 05:36:39 25° 343° (NNW) 05:40:50 437.125/150
STRAND 1 21 Dec 05:32:28 05:37:25 48° 259° (WSW) 05:42:23 437.568
QB50P1 21 Dec 05:33:11 05:36:12 19° 21° (NNE) 05:39:14 145.935-145.965
HO-68 21 Dec 05:40:12 05:43:12 13° 59° (ENE) 05:46:11 435.675
Gurwin Techsat 1B 21 Dec 05:47:26 05:52:06 32° 330° (NNW) 05:56:45 435.225
ITAMSAT 1 21 Dec 05:49:24 05:53:46 28° 336° (NNW) 05:58:08 435.822/435.867
PRISM 21 Dec 05:58:13 06:01:23 20° 274° (W) 06:04:33 437.425
POPSAT HIP 1 21 Dec 06:01:27 06:04:43 22° 28° (NNE) 06:08:01 437.405
CUTE-I 21 Dec 06:02:03 06:07:15 51° 102° (ESE) 06:12:27 437.470
TIGRISAT 21 Dec 06:06:00 06:09:48 27° 33° (NNE) 06:13:42 435.000
BUGSAT 1 21 Dec 06:25:24 06:28:37 23° 32° (NNE) 06:31:50 437.445
AO-7 21 Dec 06:28:14 06:36:34 71° 318° (NW) 06:44:53 29.400- 29.500
DUCHIFAT 1 21 Dec 06:28:43 06:32:14 26° 35° (NE) 06:35:46 145.980
UNISAT 6 21 Dec 06:35:01 06:39:05 33° 40° (NE) 06:43:14 437.425
DOVE 4 21 Dec 06:38:02 06:38:59 11° 69° (ENE) 06:39:57 437.250
CANX-2 21 Dec 06:41:16 06:43:25 13° 75° (ENE) 06:45:34 2200.000
QB50P2 21 Dec 06:42:27 06:46:07 29° 38° (NE) 06:49:49 145.880/145.840
CUBESAT XI-V 21 Dec 06:50:10 06:53:33 20° 279° (W) 06:56:57 437.345
POLYITAN 1 21 Dec 06:51:23 06:55:07 31° 41° (NE) 06:58:54 437.675
NANOSAT C BR1 21 Dec 06:53:05 06:56:49 31° 41° (NE) 07:00:34 145.865
JAS-2 21 Dec 06:53:37 06:59:49 56° 312° (NW) 07:05:19 435.910
GONETS M04 21 Dec 06:54:26 07:03:18 70° 302° (WNW) 07:12:08
HORYU 2 21 Dec 06:55:37 06:59:07 23° 337° (NNW) 07:02:38 437.375
YUBILEINY 21 Dec 06:56:39 07:04:55 44° 31° (NNE) 07:13:08 435.215
CINEMA 3 21 Dec 06:59:14 07:00:11 11° 68° (ENE) 07:01:08 145.822/145.860
CUSAT 1 21 Dec 06:59:37 07:02:40 16° 64° (ENE) 07:06:11 437.405
COMPASS 1 21 Dec 07:01:24 07:03:38 14° 76° (ENE) 07:05:51 437.405
ANTELSAT 21 Dec 07:06:39 07:10:55 43° 48° (NE) 07:15:19 437.575/2403.000
QB50P1 21 Dec 07:07:25 07:11:16 35° 44° (NE) 07:15:09 145.935-145.965
SEEDS 21 Dec 07:07:31 07:10:14 16° 79° (ENE) 07:12:57 437.485
Cubesat XI-IV 21 Dec 07:09:06 07:14:28 86° 298° (WNW) 07:19:49 437.490
Oscar 19 21 Dec 07:10:47 07:14:48 23° 7° (N) 07:18:50 437.125/150
O/OREOS (USA 219) 21 Dec 07:11:02 07:15:33 83° 213° (SSW) 07:20:05 437.305
CUTE 1.7 + AOD 2 21 Dec 07:11:36 07:14:39 18° 81° (E) 07:17:40 437.475
STRAND 1 21 Dec 07:14:28 07:17:53 18° 282° (WNW) 07:21:18 437.568
Gurwin Techsat 1B 21 Dec 07:26:50 07:30:59 24° 354° (N) 07:35:08 435.225
HO-68 21 Dec 07:27:22 07:33:36 31° 86° (E) 07:39:48 435.675
ITAMSAT 1 21 Dec 07:28:08 07:32:09 23° 0° (N) 07:36:09 435.822/435.867
BRITE-PL 21 Dec 07:28:16 07:31:56 24° 88° (E) 07:35:47 437.365/2234.400
DX 1 21 Dec 07:29:54 07:30:52 11° 72° (ENE) 07:31:50 434.975-435.025
POPSAT HIP 1 21 Dec 07:35:55 07:39:57 46° 51° (NE) 07:44:02 437.405
TIGRISAT 21 Dec 07:41:34 07:45:59 59° 56° (NE) 07:50:33 435.000
CUTE-I 21 Dec 07:42:19 07:47:36 65° 306° (NW) 07:52:52 437.470
Oscar 11 21 Dec 07:50:04 07:52:57 17° 80° (E) 07:55:49 145.826/435.025
GOMX 1 21 Dec 07:51:43 07:55:37 27° 90° (E) 07:59:43 467.674
DANDE 21 Dec 07:52:48 07:56:33 23° 76° (ENE) 08:01:12 436.750
UKube-1 21 Dec 07:59:18 08:01:50 15° 79° (E) 08:04:22 .
BUGSAT 1 21 Dec 07:59:36 08:03:33 52° 55° (NE) 08:07:31 437.445
AAUSAT CUBESAT 2 21 Dec 08:00:39 08:04:14 25° 89° (E) 08:07:49 437.432
DUCHIFAT 1 21 Dec 08:03:26 08:07:36 61° 57° (ENE) 08:11:48 145.980
UNISAT 6 21 Dec 08:11:01 08:15:31 81° 63° (ENE) 08:20:11 437.425
CUBEBUG 2 21 Dec 08:13:59 08:17:17 19° 82° (E) 08:20:38 437.445
DOVE 4 21 Dec 08:14:10 08:18:14 31° 92° (E) 08:22:30 437.250
CANX-2 21 Dec 08:16:26 08:20:33 40° 98° (E) 08:24:39 2200.000
QB50P2 21 Dec 08:17:25 08:21:39 72° 61° (ENE) 08:25:55 145.880/145.840
AO-7 21 Dec 08:20:47 08:28:44 50° 345° (NNW) 08:36:42 29.400- 29.500
ZACube-1 21 Dec 08:21:55 08:25:00 18° 80° (E) 08:28:06 437.345
POLYITAN 1 21 Dec 08:26:30 08:30:44 80° 63° (ENE) 08:35:01 437.675
VELOX 1 21 Dec 08:26:34 08:28:40 13° 75° (ENE) 08:30:46 145.980
NANOSAT C BR1 21 Dec 08:28:08 08:32:22 81° 64° (ENE) 08:36:38 145.865
HORYU 2 21 Dec 08:31:34 08:34:40 18° 1° (N) 08:37:45 437.375
CINEMA 3 21 Dec 08:34:48 08:38:52 31° 91° (E) 08:43:06 145.822/145.860
COMPASS 1 21 Dec 08:36:25 08:40:30 41° 98° (E) 08:44:34 437.405
JAS-2 21 Dec 08:38:26 08:44:06 33° 338° (NNW) 08:49:12 435.910
CUSAT 1 21 Dec 08:39:32 08:44:03 41° 91° (E) 08:50:00 437.405
QB50P1 21 Dec 08:42:42 08:46:57 86° 247° (WSW) 08:51:14 145.935-145.965
SEEDS 21 Dec 08:42:52 08:47:06 49° 102° (ESE) 08:51:17 437.485
ANTELSAT 21 Dec 08:43:08 08:47:38 72° 251° (WSW) 08:52:17 437.575/2403.000
CUTE 1.7 + AOD 2 21 Dec 08:47:12 08:51:30 56° 104° (ESE) 08:55:46 437.475
FUNcube-1 21 Dec 08:48:18 08:51:56 24° 87° (E) 08:55:37 145.935
Oscar 19 21 Dec 08:48:32 08:53:05 32° 31° (NNE) 08:57:39 437.125/150
DELFI C3 21 Dec 08:48:59 08:52:39 29° 92° (E) 08:56:18 145.870
Cubesat XI-IV 21 Dec 08:49:20 08:54:16 40° 321° (NW) 08:59:12 437.490
50 SAT 21 Dec 08:50:26 08:52:59 16° 80° (E) 08:55:32 437.505
O/OREOS (USA 219) 21 Dec 08:50:32 08:54:39 36° 236° (WSW) 08:58:47 437.305
UWE-3 21 Dec 08:50:41 08:54:32 27° 89° (E) 08:58:26 435.000/436.395/437.385
GONETS M04 21 Dec 08:53:23 09:01:43 43° 332° (NNW) 09:10:01
YUBILEINY 21 Dec 08:54:26 09:03:11 73° 60° (ENE) 09:11:54 435.215
DX 1 21 Dec 09:04:33 09:08:30 32° 95° (E) 09:12:26 434.975-435.025
Gurwin Techsat 1B 21 Dec 09:05:25 09:09:46 26° 19° (NNE) 09:14:08 435.225
ITAMSAT 1 21 Dec 09:06:09 09:10:31 29° 24° (NNE) 09:14:54 435.822/435.867
BRITE-PL 21 Dec 09:06:44 09:11:10 74° 109° (ESE) 09:15:56 437.365/2234.400
AISAT 21 Dec 09:09:35 09:13:02 22° 86° (E) 09:16:28 437.250
POPSAT HIP 1 21 Dec 09:11:41 09:15:52 61° 253° (WSW) 09:20:06 437.405
CUBEBUG 1 21 Dec 09:13:28 09:15:50 14° 77° (ENE) 09:18:12 437.445
